Dayton, OH (45435)

6:42 PM EDT on June 02, 2015 (GMT -0400)
Gardenview | | Change Station
CLOSE
Current Station
Personal Weather Station
Location: Dayton, OH
Elevation: 958 ft
Nearby Weather Stations

Elev 958 ft 39.76 °N, 84.08 °W | Updated 4 minutes ago

Overcast
Overcast
65.5 °F
Feels Like 65.5 °F
N
0.0
Wind Variable Wind from West

Today
High -- | Low -- °F
--% Chance of Precip.
Yesterday
High -- | Low -- °F
Precip. -- in
6:09 AM 8:58 PM
Full, 100% visible
Pressure 30.09 in
Visibility 10.0 miles
Clouds Mostly Cloudy 2600 ft
Mostly Cloudy 6000 ft
Dew Point 54 °F
Humidity 66%
Rainfall 0.00 in
Snow Depth Not available.
UV 2 out of 12
Pollen 7.40 out of 12
Air Quality Not available.
Flu Activity Sporadic
METAR KFFO 022158Z COR 06005KT 10SM BKN026 BKN060 18/12 A3008 RMK AO2A SLP189 T01750115 COR 2203

More Conditions Fewer Conditions

Pressure 30.09 in
Visibility 10.0 miles
Clouds Mostly Cloudy 2600 ft
Mostly Cloudy 6000 ft
Dew Point 54 °F
Humidity 66%
Rainfall 0.00 in
Snow Depth Not available.
UV 2 out of 12
Pollen 7.40 out of 12
Air Quality Not available.
Flu Activity Sporadic
METAR KFFO 022158Z COR 06005KT 10SM BKN026 BKN060 18/12 A3008 RMK AO2A SLP189 T01750115 COR 2203

More Conditions Fewer Conditions

10-Day Weather Forecast

×

Almanac

Astronomy

Jun. 02, 2015 Rise Set
Actual Time
Civil Twilight
Nautical Twilight
Astronomical Twilight
Moon
Length of Visible Light
Length of Day
Tomorrow will be .
, % of the Moon is Illuminated

Today's Extremes

State Highs State Lows

Community

WunderPhotos

Upload Photos

1,826,050 photos uploaded!

WunderBlogs® & News

Nearby

Air Quality

  Air Quality AQ Index Pollutant
Not available.

Snow Depth

Station Depth Elevation

Earthquake Activity

City Distance Mag. Time & Date
Minimum magnitude displayed is 2.5.

Coastal Water Temperatures

Place Temperature

Stations

Nearby Weather Stations

Station Location Temp. Windchill Dew Point Humidity Wind Precip. Elev Updated Type